Погода в Студенке

Россия / Липецкая область     52°01′35″N   40°19′25″E
темп.,
°C
ветер,
м/с
пор.,
м/с
влажн.,
%
обл.,
%
осадки,
мм/ч
давл.,
гПа
погр.,
м
25 февраля, чт
чт2500:00−14ююз51095100 0.3 1036350
03:00−13ююз51094100 0.8 1033386
06:00−12юз61193100 0.1 1029404
09:00−9юз71295100 0.6 1027383
12:00−5зюз81393100 1.4 1023535
15:00−1юз91594100 1.7 1019441
18:00+2з71399100 0.8 1017362
21:00+2з510100100 1.1 1017264
26 февраля, пт
пт2600:00+2з51199100 0.6 1017285
03:00+2зсз51299100 0.6 1017311
06:00+2з51299100 0.5 1016293
09:00+2з51099100 0.6 1016257
12:00+2з612100100 0.0 1014302
15:00+2з71498100 0.0 1013497
18:00+3з61599100 0.3 1010410
21:00+2з61498100 0.3 1010417
27 февраля, сб
сб2700:00+1зсз61397100 0.0 1008489
03:00+1з51193100 0.0 1008436
06:00+1з51194100 0.1 1006412
09:000з61097100 0.1 1006510
12:00+1з51098100 0.1 1005517
15:00+1з61098100 0.1 1004521
18:000з51197100 0.2 1004480
21:000зсз61197100 0.3 1005597
28 февраля, вс
вс2800:00−6ссз71089100 0.5 1006745
03:00−9ссз71187100 0.6 1010726
06:00−10ссз71188100 0.1 1012638
09:00−11ссз61088100 0.1 1015595
12:00−10ссз6987100 0.1 1016601
15:00−9ссз6985100 0.1 1017633
18:00−10ссз5989100 0.0 1019554
21:00−10ссз499296 0.0 1021465
1 марта, пн
пн100:00−10ссз489469 0.0 1023340
03:00−11ссз389465 0.0 1024293
06:00−12ссз379542 0.0 1026288
09:00−11ссз479142 0.0 1027372
12:00−8ссз478876 0.0 1029419
15:00−6сз468982 0.0 1029429
18:00−7зсз349486 0.0 102977
21:00−8з359550 0.0 103091